Regional Weather Roundup
Issued by NWS

Home | Current Version | Previous Version | Graphics & Text | Print | Product List | Glossary On
Versions: 1 2 3 4 5 6 7 8 9 10 11 12 13 14 15 16 17 18 19 20 21 22 23 24 25 26 27 28 29 30 31 32 33 34 35 36 37 38 39 40 41 42 43 44 45 46 47 48 49 50
988
ASUS45 KBOU 270507
RWRCO

WEATHER ROUNDUP FOR COLORADO
NATIONAL WEATHER SERVICE DENVER/BOULDER CO
1100 PM MDT THU MAY 26 2016

NOTE: "FAIR" INDICATES FEW OR NO CLOUDS BELOW 12000 FEET WITH NO
SIGNIFICANT WEATHER AND/OR OBSTRUCTIONS TO VISIBILITY.

COZ001>005-013-030-031-270600-
...NORTHWEST COLORADO...

CITY           SKY/WX    TMP DP  RH WIND       PRES   REMARKS
CRAIG          CLOUDY    47  38  71 S7        29.96R
HAYDEN         FAIR      45  34  65 N6        29.97R
MEEKER         NOT AVBL
MOUNT WERNER   NOT AVBL
STEAMBOAT SPGS FAIR      44  35  68 E7        29.98R
WALDEN         FAIR      37  32  81 NW6       30.02R
$$

COZ006>008-011-270600-
...WEST CENTRAL VALLEYS...

CITY           SKY/WX    TMP DP  RH WIND       PRES   REMARKS
GRAND JUNCTION FAIR      53  36  52 N6        29.91S
MONTROSE       LGT RAIN  50  40  68 SE7       29.99S
EAGLE          MOCLDY    43  41  93 SE3       30.03S
RIFLE          CLOUDY    53  36  52 E8        29.94S
DELTA          FAIR      56  40  54 E3        29.94R
NUCLA          CLOUDY    52  34  50 S8        30.01S
$$

COZ017>023-064>068-270600-
...SOUTHWEST COLORADO...

CITY           SKY/WX    TMP DP  RH WIND       PRES   REMARKS
DURANGO        FAIR      48  28  46 SW6       29.95R
CORTEZ         FAIR      46  34  62 CALM      29.98R
PAGOSA SPRINGS CLOUDY    45  29  54 CALM      29.98R
TELLURIDE      LGT SNOW  36  35  98 W10       30.10R
WOLF CREEK PAS CLOUDY    28  19  69 W3        30.14R
$$

COZ009-010-012-014-032>034-037-058>063-270600-
...CENTRAL COLORADO...

CITY           SKY/WX    TMP DP  RH WIND       PRES   REMARKS
ASPEN          LGT RAIN  40  36  86 CALM      30.03S
BUENA VISTA    FAIR      41  37  86 SE3       30.00F
COPPER MTN     NOT AVBL
BERTHOUD PASS  HAZE      25  14  63 N12G21    30.12S VSB<1/4 WCI  14
COTTONWOOD PAS CLOUDY    37  34  87 SW5       30.04F
GUNNISON       CLOUDY    45  34  65 S6        30.02S
KREMMLING      MOCLDY    43  32  65 W8        30.00R
LEADVILLE      MOCLDY    32  30  92 N9        30.04S WCI  24
MONARCH PASS   SNOW      28  28 100 E7        30.20F VSB 1/2 WCI  21
SALIDA         CLOUDY    42  40  91 S3        30.07F
SUNLIGHT       FLURRIES  34  32  93 CALM      30.14F
WILKERSON PASS CLOUDY    30  28  93 N10       30.09F WCI  21
$$

COZ069>075-270600-
...SAN LUIS VALLEY/SANGRE DE CRISTO MOUNTAINS...

CITY           SKY/WX    TMP DP  RH WIND       PRES   REMARKS
ALAMOSA        CLOUDY    45  33  63 N5        29.98R
LA VETA PASS   FAIR      32  30  93 SW5       30.03S WCI  27
SAGUACHE       LGT RAIN  37  36  93 NW15      30.01R
$$

COZ035-036-038>040-270600-
...NORTHERN COLORADO FRONT RANGE...

CITY           SKY/WX    TMP DP  RH WIND       PRES   REMARKS
DENVER INTL AP CLOUDY    45  42  89 S9        29.90F
DMNS CITY PARK   N/A     48  45  91 E5        29.91S
AURORA         CLOUDY    45  45 100 S6        29.91F
FRONT RANGE AP NOT AVBL
ERIE MUNI ARPT FAIR      48  45  87 CALM      29.90F
BOULDER MUN AP FAIR      48  45  87 CALM      29.90F
CENTENNIAL     CLOUDY    46  43  89 SW6       29.91F
BROOMFIELD     NOT AVBL
FORT COLLINS   FAIR      48  43  81 S5        29.90F
LONGMONT       FAIR      50  46  84 CALM      29.91F
$$

COZ041-046-047-076>085-087-088-270600-
...PIKES PEAK/PALMER DIVIDE AND SOUTHERN FOOTHILLS...

CITY           SKY/WX    TMP DP  RH WIND       PRES   REMARKS
COLO. SPRINGS  LGT RAIN  46  43  89 N15       29.92F
A. F. ACADEMY  DRIZZLE   43  43 100 N6        29.91F
SCHRIEVER AFB  NOT AVBL
ELLICOTT       MOCLDY   N/A N/A N/A N16G24    29.91R
FALCON         DRIZZLE   40  38  91 NW7       29.93F
FORT CARSON    CLOUDY    46  41  82 NW7       29.90R
LIMON          CLOUDY    43  41  93 NW12      29.87R
MONUMENT HILL  DRIZZLE   37  37 100 W5        29.95F
TRINIDAD       FAIR      46  36  68 CALM      29.90R
$$

COZ042>045-048>051-090-091-270600-
...NORTHEAST COLORADO...

CITY           SKY/WX    TMP DP  RH WIND       PRES   REMARKS
GREELEY ARPT   FAIR      48  46  93 SW5       29.90S
AKRON          CLOUDY    47  45  93 NW13      29.83F
BURLINGTON     FAIR      49  43  80 NW12      29.76R
WRAY           FAIR      52  50  93 NW16G31   29.72R
STERLING       LGT RAIN  52  50  93 W6        29.84F
HOLYOKE        NOT AVBL
FORT MORGAN    LGT RAIN  48  46  93 W12       29.85F
$$

COZ086-089-092>099-270600-
...SOUTHEAST COLORADO...

CITY           SKY/WX    TMP DP  RH WIND       PRES   REMARKS
PUEBLO         FAIR      52  39  61 W3        29.85F
LA JUNTA       FAIR      50  41  71 N15       29.83F
LAMAR          FAIR      49  40  71 NW8       29.83R
SPRINGFIELD      N/A     50  43  77 NW21      29.81R
$$




USA.gov is the U.S. government's official web portal to all federal, state and local government web resources and services.